Location: Kalberh�ni
(46.4610°N, 7.2453°E)
Time: 05:30:01
(UTC+00:00)

Cosmos 2333 Rocket - Pass Details

Date: 30 October 2021
Orbit: 837 x 865 km, 70.8° (Epoch: 05 December)

Event Time Altitude Azimuth Distance (km) Brightness Sun altitude
Exits shadow 02:21:51 22° 104° (ESE) 1,816 4.3 -39.1°
Drops below altitude 10° 02:24:04 10° 119° (ESE) 2,503 5.0 -38.8°
Sets 02:26:44 0° 128° (SE) 3,437 5.7 -38.4°
